Satellite: AUBIESAT
Catalog number: 37854
Epoch time: 12068.87707347
Element set: 119
Inclination: 101.7181 deg
RA of node: 063.5791 deg
Eccentricity: 0.0250991
Arg of perigee: 275.9347 deg
Mean anomaly: 081.3328 deg
Mean motion: 14.79424191 rev/day
Decay rate: 5.987e-05 rev/day^2
Epoch rev: 1955
Checksum: 335
Satellite: HRBE
Catalog number: 37855
Epoch time: 12067.93544331
Element set: 0128
Inclination: 101.7203 deg
RA of node: 062.1959 deg
Eccentricity: 0.0251848
Arg of perigee: 278.9442 deg
Mean anomaly: 078.3333 deg
Mean motion: 14.79305558 rev/day
Decay rate: 5.321e-05 rev/day^2
Epoch rev: 01941
Checksum: 305
Satellite: RS-39
Catalog number: 38051
Epoch time: 12068.84275463
Element set: 132
Inclination: 051.6467 deg
RA of node: 277.3923 deg
Eccentricity: 0.0011501
Arg of perigee: 039.1399 deg
Mean anomaly: 148.8731 deg
Mean motion: 15.22629941 rev/day
Decay rate: 9.876e-05 rev/day^2
Epoch rev: 667
Checksum: 326
/EX
More information about the Keps
mailing list